Regional Weather Roundup
Issued by NWS

Home | Current Version | Previous Version | Text Only | Print | Product List | Glossary Off
Versions: 1 2 3 4 5 6 7 8 9 10 11 12 13 14 15 16 17 18 19 20 21 22 23 24 25 26 27 28 29 30 31 32 33 34 35 36 37 38 39 40 41 42 43 44 45 46 47 48 49 50

000
ASUS43 KMPX 230510
RWRMN
WEATHER ROUNDUP FOR MINNESOTA
NATIONAL WEATHER SERVICE TWIN CITIES/CHANHASSEN MN
1200 AM CDT SAT MAY 23 2015


NOTE: "FAIR" INDICATES FEW OR NO CLOUDS BELOW 12,000 FEET WITH NO
SIGNIFICANT WEATHER AND/OR OBSTRUCTIONS TO VISIBILITY. N/A MEANS
CURRENT SKY AND/OR WEATHER CONDITIONS ARE NOT AVAILABLE.

MNZ060>063-068>070-230600-
   Twin Cities Metro

CITY           SKY/WX    TMP DP  RH WIND       PRES   REMARKS
TWIN CITIES    CLOUDY    61  39  44 SE5       30.20S
ST PAUL        MOCLDY    54  45  71 CALM      30.21S
CRYSTAL        MOCLDY    54  42  64 CALM      30.19S
BLAINE         MOCLDY    55  43  62 SE3       30.20S
LAKEVILLE      MOCLDY    54  43  66 CALM      30.20F
EDEN PRAIRIE   MOCLDY    59  40  49 SE5       30.19S
SOUTH ST PAUL  MOCLDY    56  44  64 CALM      30.20S
LAKE ELMO      FAIR      50  45  81 CALM      30.22S
$$
MNZ001>005-007-008-013>017-022>024-027-028-230600-
   Northwest Minnesota

CITY           SKY/WX    TMP DP  RH WIND       PRES   REMARKS
BEMIDJI        CLEAR     53  40  61 CALM      30.16R
HALLOCK        CLEAR     55  43  62 SW10      30.10S
ROSEAU         FAIR      61  45  55 SW8       30.11S
WARROAD        PTCLDY    63  45  51 SW6       30.11S
THIEF RVR FALL CLEAR     59  37  44 CALM      30.14S
CROOKSTON      CLEAR     61  39  44 SE5       30.14S
FOSSTON        CLEAR     52  43  71 CALM      30.16S
DETROIT LAKES  CLEAR     57  45  62 CALM      30.18R
MOORHEAD       FAIR      61  39  44 SE5       30.15S
PARK RAPIDS    CLEAR     57  39  51 CALM      30.17S
MAHNOMEN       FAIR      57  40  53 S5        30.15S
$$
MNZ006-009>011-018-025>026-230600-
   North Central Minnesota

CITY           SKY/WX    TMP DP  RH WIND       PRES   REMARKS
BAUDETTE       PTCLDY    55  42  61 S6        30.10F
INTL FALLS     PTCLDY    58  40  51 SW3       30.11S
WASKISH        CLEAR     61  39  44 CALM      30.13S
BIG FORK       CLEAR     46  43  87 CALM      30.16S
LONGVILLE      CLEAR     46  43  87 CALM      30.17S
GRAND RAPIDS   CLEAR     55  37  50 S7        30.17S
CRANE LAKE     PTCLDY    45  41  87 S3        30.13S
ORR            PTCLDY    57  34  41 CALM      30.12S
COOK           CLEAR     57  37  47 SW5       30.15S
WALKER         FAIR      54  38  55 SW3       30.16S
$$
MNZ012-019>021-037-230600-
   Northeast Minnesota

CITY           SKY/WX    TMP DP  RH WIND       PRES   REMARKS
DULUTH         CLEAR     57  36  45 SW8       30.18S
ELY            CLEAR     54  36  50 SW3       30.14S
HIBBING        CLEAR     45  36  70 CALM      30.16S
EVELETH        CLEAR     50  37  62 W3        30.17S
DULUTH HARBOR  CLEAR     45  36  70 CALM      30.20S
TWO HARBORS    CLEAR     43  37  81 CALM      30.16S
SILVER BAY     CLEAR     41  34  75 CALM      30.15S
GRAND MARAIS     N/A     39  33  79 CALM      30.15F
G MARAIS ARPRT CLEAR     37  28  70 CALM      30.16F
$$
MNZ029>031-032-039>041-046>048-054>057-064-230600-
   West Central Minnesota

CITY           SKY/WX    TMP DP  RH WIND       PRES   REMARKS
FERGUS FALLS   MOCLDY    61  37  41 SE6       30.16S
WHEATON        MOCLDY    57  39  51 SE9       30.17R
MORRIS         MOCLDY    57  39  51 SE8       30.16R
ALEXANDRIA     MOCLDY    58  37  45 SE7       30.19S
ELBOW LAKE     FAIR      61  38  43 E6        30.16S
WADENA         PTCLDY    55  39  54 CALM      30.17S
GLENWOOD       MOCLDY    55  39  54 SE6       30.19S
APPLETON       PTCLDY    61  45  55 W10       30.18S
BENSON         PTCLDY    63  36  36 S9        30.17S
ORTONVILLE     PTCLDY    57  43  58 W8        30.18R
MADISON        CLEAR     59  43  55 W7        30.19R
WILLMAR        FAIR      59  43  55 E7        30.19S
$$
MNZ033>034-036-042>043-049>051-058-059-230600-
   Central Minnesota

CITY           SKY/WX    TMP DP  RH WIND       PRES   REMARKS
ST CLOUD       PTCLDY    49  44  83 CALM      30.19S
SAUK CENTRE    FAIR      52  41  66 SE3       30.19S
PAYNESVILLE    MOCLDY    56  39  54 E5        30.19S
AITKIN         CLEAR     46  39  76 CALM      30.17S
PINE RIVER     CLEAR     52  43  71 CALM      30.21S
BRAINERD       CLEAR     50  43  77 CALM      30.19S
STAPLES        PTCLDY    54  41  62 CALM      30.18S
LONG PRAIRIE   FAIR      52  43  71 CALM      30.19S
LITTLE FALLS   CLEAR     50  39  66 CALM      30.19S
LITCHFIELD     MOCLDY    59  43  55 E3        30.19F
BUFFALO        MOCLDY    55  46  71 CALM      30.20S
MAPLE LAKE     MOCLDY    53  48  82 CALM      30.20S
$$
MNZ037-044-045-052-053-230600-
   East Central Minnesota

CITY           SKY/WX    TMP DP  RH WIND       PRES   REMARKS
PRINCETON      PTCLDY    50  43  76 CALM      30.20S
MORA           CLEAR     45  41  87 CALM      30.21S
CAMBRIDGE      PTCLDY    54  43  66 CALM      30.18S
RUSH CITY      PTCLDY    49  40  72 S3        30.20S
MOOSE LAKE     CLEAR     45  39  81 CALM      30.17S
HINCKLEY       FAIR      45  43  93 CALM      30.19S
CLOQUET        CLEAR     48  41  76 SW3       30.18F
MCGREGOR       CLEAR     52  41  66 CALM      30.19S
$$
MNZ071>073-080-081-089-090-097-098-230600-
   Southwest Minnesota

CITY           SKY/WX    TMP DP  RH WIND       PRES   REMARKS
MONTEVIDEO     CLEAR     61  45  55 W8        30.20R
GRANITE FALLS  PTCLDY    59  43  54 SW13      30.21S
CANBY          PTCLDY    56  43  60 SW8       30.20S
MARSHALL       PTCLDY    57  39  51 W9        30.20S
REDWOOD FALLS  PTCLDY    62  42  47 W13       30.19R
OLIVIA         PTCLDY    57  36  44 S9G21     30.19R
PIPESTONE      CLOUDY    55  43  62 NW2       30.21F
WINDOM         PTCLDY    55  43  62 CALM      30.22S
WORTHINGTON    CLOUDY    55  39  54 CALM      30.21F
JACKSON        MOCLDY    55  45  67 W5        30.22F
TRACY          MOCLDY    59  44  57 W9        30.21S
SLAYTON        MOCLDY    55  43  62 CALM      30.22F
$$
MNZ065>067-074>077-082>085-091>093-230600-
   South Central Minnesota

CITY           SKY/WX    TMP DP  RH WIND       PRES   REMARKS
MANKATO        CLOUDY    63  37  39 E9        30.19S
NEW ULM        MOCLDY    61  37  41 SW7       30.20R
ST JAMES       PTCLDY    59  45  58 W8        30.23R
FAIRMONT       PTCLDY    61  39  44 W9        30.22R
GLENCOE        MOCLDY    59  41  51 E3        30.18F
FARIBAULT      CLOUDY    59  39  47 CALM      30.21S
OWATONNA       CLOUDY    55  39  54 E7        30.21S
WASECA         CLOUDY    55  41  58 E6        30.21S
ALBERT LEA     MOCLDY    61  37  41 SE7       30.20F
$$
MNZ078>079-086>088-094>096-230600-
   Southeast Minnesota

CITY           SKY/WX    TMP DP  RH WIND       PRES   REMARKS
ROCHESTER      CLOUDY    57  39  51 E8        30.23S
RED WING       MOCLDY    50  45  81 CALM      30.21R
STANTON        MOCLDY    55  39  55 CALM      30.19F
DODGE CENTER   CLOUDY    57  39  51 E5        30.21F
WINONA         MOCLDY    54  46  76 CALM      30.22S
AUSTIN         CLOUDY    55  43  62 E6        30.21S
PRESTON        CLOUDY    60  40  47 E5        30.23S
$$
ABBREVIATIONS USED IN REMARKS
   TC - TEMPERATURES IN CELSIUS
  WCI - WIND CHILL INDEX
   HX - HEAT INDEX
  VSB - VISIBILITY
$$



USA.gov is the U.S. government's official web portal to all federal, state and local government web resources and services.